Mount Shasta, CA

7:16 AM PDT on May 29, 2017 (GMT -0700)
Mount Shasta

Weather History for KMHS - June, 2013

Change the Weather History Date:

Sunday, June 30, 2013

  Actual Average Record
Temperature  
Mean Temperature 78 °F 65 °F  
Max Temperature 99 °F 82 °F 99 °F (1915)
Min Temperature 57 °F 49 °F 37 °F (1968)
Degree Days  
Heating Degree Days 0 2  
Month to date heating degree days 87 141  
Since 1 June heating degree days 87 142  
Since 1 July heating degree days 5096 5694  
Cooling Degree Days 13 2  
Month to date cooling degree days 99 37  
Year to date cooling degree days 108 45  
Since 1 June cooling degree days 99 37  
Growing Degree Days 28 (Base 50)    
Moisture  
Dew Point 49 °F    
Average Humidity 43    
Maximum Humidity 72    
Minimum Humidity 12    
Precipitation  
Precipitation 0.00 in 0.02 in 1.50 in (1997)
Month to date precipitation 0.67 1.20  
Year to date precipitation 7.08 26.60  
Sea Level Pressure  
Sea Level Pressure 29.94 in    
Wind  
Wind Speed 1 mph (ENE)    
Max Wind Speed 7 mph    
Max Gust Speed 12 mph    
Visibility 10 miles    
Events      
T = Trace of Precipitation, MM = Missing Value Source: NWS Daily Summary

Daily Weather History Graph

Daily Weather History Graph

Search for Another Location

Airport or City:

Trip Planner

Search our weather history database for the weather conditions in past years. The results will help you decide how hot, cold, wet, or windy it might be!

Date:

Astronomy

Jun. 30, 2013 Rise Set
Actual Time 5:39 AM PDT 8:46 PM PDT
Civil Twilight 5:05 AM PDT 9:20 PM PDT
Nautical Twilight 4:22 AM PDT 10:03 PM PDT
Astronomical Twilight 3:31 AM PDT 10:54 PM PDT
Moon 12:44 AM PDT (6/30) 2:04 PM PDT (6/30)
Length of Visible Light 16h 14m
Length of Day
15h 06m
Last Quarter, 44% of the Moon is Illuminated
Jun 30
Last Quarter
Jul 8
New
Jul 15
First Quarter
Jul 22
Full
Jul 29
Last Quarter

Hourly Weather History & Observations

Time (PDT) Temp. Heat Index Dew Point Humidity Pressure Visibility Wind Dir Wind Speed Gust Speed Precip Events Conditions
12:56 AM 66.9 °F - 48.0 °F 51% 30.01 in 10.0 mi Calm Calm - N/A   Clear
1:56 AM 64.0 °F - 48.9 °F 58% 30.00 in 10.0 mi Calm Calm - N/A   Clear
2:56 AM 61.0 °F - 50.0 °F 67% 29.99 in 10.0 mi Calm Calm - N/A   Clear
3:56 AM 60.1 °F - 48.9 °F 67% 29.99 in 10.0 mi NE 3.5 mph - N/A   Clear
4:56 AM 57.9 °F - 48.9 °F 72% 29.99 in 10.0 mi Calm Calm - N/A   Clear
5:56 AM 57.9 °F - 48.9 °F 72% 30.00 in 10.0 mi Calm Calm - N/A   Clear
6:56 AM 61.0 °F - 50.0 °F 67% 30.01 in 10.0 mi Calm Calm - N/A   Clear
7:56 AM 71.1 °F - 54.0 °F 55% 29.99 in 10.0 mi Calm Calm - N/A   Clear
8:56 AM 78.1 °F - 55.0 °F 45% 29.99 in 10.0 mi Calm Calm - N/A   Clear
9:56 AM 82.0 °F 81.4 °F 55.0 °F 39% 29.96 in 10.0 mi Variable 3.5 mph - N/A   Clear
10:56 AM 84.9 °F 83.6 °F 55.0 °F 36% 29.96 in 10.0 mi Variable 4.6 mph - N/A   Clear
11:56 AM 89.1 °F 87.3 °F 55.9 °F 32% 29.94 in 10.0 mi Calm Calm - N/A   Clear
12:56 PM 91.0 °F 88.7 °F 54.0 °F 28% 29.93 in 10.0 mi Calm Calm - N/A   Clear
1:56 PM 97.0 °F - 46.0 °F 18% 29.90 in 10.0 mi Calm Calm - N/A   Clear
2:56 PM 99.0 °F - 37.9 °F 12% 29.89 in 10.0 mi Calm Calm - N/A   Clear
3:56 PM 99.0 °F - 43.0 °F 15% 29.88 in 10.0 mi Calm Calm - N/A   Clear
4:56 PM 96.1 °F - 37.9 °F 13% 29.88 in 10.0 mi Variable 3.5 mph - N/A   Clear
5:56 PM 93.0 °F - 43.0 °F 18% 29.86 in 10.0 mi Calm Calm - N/A   Clear
6:56 PM 89.1 °F - 48.9 °F 25% 29.86 in 10.0 mi Calm Calm - N/A   Clear
7:56 PM 87.1 °F - 48.9 °F 27% 29.86 in 10.0 mi East 3.5 mph - N/A   Clear
8:56 PM 79.0 °F - 50.0 °F 36% 29.89 in 10.0 mi Calm Calm - N/A   Clear
9:56 PM 72.0 °F - 54.0 °F 53% 29.92 in 10.0 mi NE 3.5 mph - N/A   Clear
10:56 PM 70.0 °F - 53.1 °F 55% 29.93 in 10.0 mi ENE 4.6 mph - N/A   Clear
11:56 PM 66.9 °F - 52.0 °F 59% 29.93 in 10.0 mi Calm Calm - N/A   Clear